Location: Cardiff
(53.7833°N, 113.6000°W)
Time: 07:37:56
(UTC+00:00)

RS-15 - Pass Details

Date: 09 December 2023
Orbit: 1893 x 2151 km, 64.8° (Epoch: 21 February)

Event Time Altitude Azimuth Distance (km) Brightness Sun altitude
Exits shadow 13:08:24 28° 292° (WNW) 3,184 8.5 -20.9°
Maximum altitude 13:13:01 38° 251° (WSW) 2,707 8.3 -20.2°
Drops below altitude 10° 13:22:40 10° 188° (S) 4,287 9.9 -18.8°
Sets 13:26:11 0° 181° (S) 5,268 10.5 -18.3°
